| Date | Temp | Humidity | Rainfall | Dew Point | Wind Direction | Wind Speed | Wind Pressure | Condition | Visibility |
|---|---|---|---|---|---|---|---|---|---|
| 2025-06-08 10:00:18 | 28 | 80 | 0.0 | 24 | 200 | 7.6 | 1011 | Distant showers | 10 KM |
| 2025-06-08 09:59:59 | 28 | 80 | 24 | 200 | 7.6 | 1011 | Distant showers | 10 | |
| 2025-06-08 08:58:50 | 27 | 80 | 0.0 | 24 | 180 | 5.7 | 1011 | Distant showers | 10 km |
| 2025-06-08 07:06:21 | 26 | 90 | 0.00 | 24 | 200 | 5.7 | 1010 | Cloudy | 10KM |
| 2025-06-08 06:02:35 | 26 | 91 | 0.00 | 24 | 210 | 5.7 | 1009 | Partly Cloudy (Night) | 10KM |
| 2025-06-08 05:06:44 | 26 | 94 | 0.00 | 25 | 180 | 5.7 | 1009 | Partly Cloudy (Night) | 10KM |
| 2025-06-08 04:01:09 | 26 | 95 | 0.00 | 25 | 220 | 3.8 | 1009 | Partly Cloudy (Night) | 10KM |
| 2025-06-08 03:00:54 | 26 | 96 | 0.00 | 25 | 210 | 3.8 | 1009 | Partly Cloudy (Night) | 10KM |
| 2025-06-08 01:58:31 | 27 | 92 | 0.00 | 25 | 180 | 5.7 | 1010 | Cloudy | 10 KM |
| 2025-06-08 00:57:45 | 27 | 91 | 0.00 | 25 | 150 | 5.7 | 1010 | Cloudy | 10 KM |
| 2025-06-08 00:00:29 | 27 | 91 | 0.00 | 26 | 220 | 3.8 | 1011 | Cloudy | 10 KM |
| 2025-06-07 22:59:09 | 27 | 92 | 0.00 | 26 | 090 | 1.9 | 1011 | Cloudy | 10 KM |
| 2025-06-07 21:58:52 | 27 | 90 | 0.00 | 26 | 110 | 3.8 | 1010 | Cloudy | 10 KM |
| 2025-06-07 20:58:05 | 28 | 85 | 0.0 | 26 | 290 | 3.8 | 1010 | Partly Cloudy (Night) | 10 KM |
| 2025-06-07 19:59:01 | 29 | 84 | 0.0 | 25 | 270 | 5.7 | 1009 | Partly Cloudy (Night) | 10 KM |
| 2025-06-07 18:58:07 | 29 | 79 | 0.0 | 25 | 240 | 5.7 | 1009 | Partly Cloudy (Night) | 10 KM |
| 2025-06-07 17:58:12 | 30 | 76 | 0.0 | 25 | 280 | 3.8 | 1008 | Partly Cloudy (Night) | 10 KM |
| 2025-06-07 16:58:54 | 31 | 70 | 24 | 140 | 11.4 | 1008 | Partly Cloudy (Day) | 20 KM | |
| 2025-06-07 16:03:14 | 31 | 64 | 24 | 230 | 13.3 | 1008 | Partly Cloudy (Day) | 20 KM | |
| 2025-06-07 14:59:09 | 31 | 65 | 24 | 180 | 9.5 | 1008 | Partly Cloudy (Day) | 10 KM | |
| 2025-06-07 14:02:21 | 31 | 68 | 24 | 200 | 7.6 | 1010 | Partly Cloudy (Day) | 20 KM | |
| 2025-06-07 12:59:12 | 29 | 76 | 0.00 | 24 | 190 | 9.5 | 1011 | Partly Cloudy (Day) | 10KM |
| 2025-06-07 11:59:30 | 27 | 80 | 0.00 | 24 | 210 | 9.5 | 1012 | Rain | 09K, |
| 2025-06-07 10:59:16 | 27 | 84 | 23 | 210 | 17.1 | 1013 | Rain | 07 KM | |
| 2025-06-07 10:02:35 | 28 | 80 | 24 | 180 | 13.3 | 1013 | Distant showers | 15 KM |